SCP
1 1 1 1 0 0 0 0 0 0 0 0 0 0 0 0 0 0 0 0 0 0 0 0 1 1 1 0 0 0 0 0 1 1 1 0 0 1 1 1 1 1 1 1 1 1 1 1 1
1 1 1 1 0 0 0 0 0 0 0 0 0 0 0 0 0 0 0 0 0 0 0 1 1 1 1 1 0 0 0 0 1 1 1 0 0 0 1 1 1 1 1 1 1 1 1 1 1
1 1 0 0 0 0 0 0 0 0 0 0 0 0 0 0 0 0 0 0 0 0 0 1 1 1 1 1 0 0 0 0 0 1 1 1 0 0 0 1 1 1 1 1 1 1 1 1 1
1 1 0 0 0 0 0 0 0 0 0 0 0 0 0 0 0 0 0 0 0 0 0 1 1 1 1 1 1 0 0 0 0 1 1 1 0 0 0 1 1 1 1 1 1 1 1 1 1
1 1 0 0 0 0 0 0 0 0 0 0 0 0 0 0 0 0 0 0 0 0 0 1 1 1 1 1 1 0 0 0 0 0 0 0 1 1 1 1 1 1 1 1 1 1 1 1 1
1 0 0 0 0 0 0 0 0 0 0 0 0 0 0 0 1 1 0 0 0 0 0 0 0 1 1 1 1 0 0 0 0 0 0 0 0 1 1 1 1 1 1 1 1 1 1 1 1
0 0 0 0 0 0 0 0 0 0 0 0 0 0 0 0 1 0 0 0 0 0 0 0 0 0 0 1 1 1 0 0 0 0 0 0 0 0 1 1 1 1 1 1 1 1 1 1 1
0 0 0 0 0 0 0 0 0 0 0 0 0 0 0 0 0 0 0 0 0 0 0 0 0 0 0 1 1 1 0 0 0 1 1 1 0 0 0 0 0 0 0 0 1 1 1 1 1
0 0 0 0 0 0 0 0 0 0 0 0 0 0 0 0 0 0 0 0 0 0 0 0 0 0 0 0 0 0 0 0 0 0 1 0 0 0 0 0 0 0 0 0 0 1 1 1 1
0 0 0 0 0 0 0 0 0 0 0 0 0 0 1 0 0 0 0 0 0 0 0 0 0 0 0 0 0 0 0 0 0 0 0 0 0 0 0 0 1 1 1 0 0 0 1 1 1
0 0 0 0 0 0 0 0 0 0 0 0 0 0 0 0 0 0 0 0 0 0 0 0 0 0 0 0 0 0 0 0 0 0 0 0 0 0 0 0 1 1 0 0 0 0 0 1 1
0 0 0 0 0 0 0 0 0 0 0 0 0 0 0 0 0 0 0 0 0 0 0 0 0 0 0 0 0 0 0 0 0 0 0 0 0 0 0 0 0 0 0 0 0 0 0 0 1
0 0 0 0 0 0 0 0 0 0 0 0 0 0 0 0 0 0 0 0 0 0 0 0 0 0 0 0 0 0 0 0 0 0 0 0 0 0 0 0 1 1 1 0 0 0 0 0 1
0 0 0 0 0 0 0 0 0 0 0 0 0 0 0 0 0 0 0 0 0 0 0 0 0 0 0 0 0 0 0 0 0 1 1 0 0 0 1 1 1 1 1 0 0 0 0 0 0
0 0 0 0 0 0 0 0 0 0 0 0 0 0 0 0 0 0 0 0 0 0 0 0 1 1 0 0 0 0 0 1 1 1 1 1 1 1 1 1 1 1 0 0 0 0 0 0 0
0 0 0 0 0 0 0 0 0 0 0 0 0 0 0 0 0 0 0 0 0 0 0 0 1 1 0 0 0 0 0 1 1 1 1 1 1 1 1 1 1 0 0 0 0 0 0 0 0
0 0 0 0 0 0 0 0 0 0 0 0 0 0 0 0 0 0 0 0 0 0 0 0 0 1 0 0 0 0 0 0 1 1 1 1 1 1 0 0 0 0 0 0 0 0 0 0 0
0 0 0 0 0 0 0 0 0 0 0 0 0 0 0 0 0 0 0 0 0 0 0 0 0 1 0 0 0 0 0 0 1 1 1 0 0 0 0 0 0 0 0 0 0 0 0 0 0
0 0 0 0 0 0 0 0 0 0 0 0 0 0 1 1 1 0 0 0 0 0 1 1 1 1 1 0 0 1 1 1 1 1 1 1 0 0 0 0 0 0 0 0 0 0 0 0 0
0 0 0 0 0 0 0 0 0 0 0 0 0 0 0 1 1 1 1 1 1 1 1 1 1 1 1 1 1 1 1 1 1 1 1 1 0 0 0 0 0 0 0 1 0 0 0 0 0
0 0 0 0 0 0 0 0 0 0 0 0 0 0 0 0 1 1 1 1 1 1 1 1 1 1 1 1 1 1 2 2 2 2 2 1 1 1 0 0 0 0 1 1 1 1 1 1 0
0 0 0 0 0 0 0 0 0 0 0 0 0 1 0 0 1 1 1 1 1 1 1 1 1 1 1 1 1 2 2 2 2 2 2 2 1 1 1 1 0 0 1 1 1 1 1 1 1
0 0 0 0 0 0 0 0 0 0 0 0 0 1 0 0 1 1 1 1 1 1 1 1 1 1 1 1 2 2 2 2 2 2 2 2 1 1 1 1 1 1 1 1 1 1 1 1 1
0 0 0 0 0 0 0 0 0 0 0 0 0 0 0 0 1 1 1 1 1 1 1 1 1 1 1 1 2 2 2 2 2 2 2 2 1 1 1 1 1 1 1 1 1 1 1 1 1
0 0 0 0 0 0 0 0 0 0 0 0 0 0 0 0 0 1 1 1 1 2 2 1 1 1 1 1 2 2 2 2 2 2 1 2 2 2 2 2 1 1 1 1 1 1 1 1 1
0 0 0 0 0 0 0 0 0 0 0 0 0 0 0 0 0 0 1 1 1 2 2 2 1 1 1 1 1 2 2 3 3 2 2 2 2 2 2 2 2 2 1 1 1 1 1 1 1
0 0 0 0 0 0 0 0 0 0 0 0 0 0 0 0 0 1 1 1 2 2 2 1 1 1 1 1 1 1 1 2 3 3 3 3 2 2 1 1 2 2 1 1 1 1 1 1 1
0 0 0 0 0 0 0 0 0 0 0 0 0 0 0 0 1 1 1 1 1 2 2 1 1 1 1 1 0 0 1 1 1 2 3 3 2 2 1 1 1 1 1 1 1 1 1 1 1
0 0 0 0 0 0 0 0 0 0 0 0 0 0 0 0 1 1 1 1 1 2 2 1 1 1 1 1 1 1 1 0 1 1 1 2 2 2 2 1 1 0 0 0 0 0 1 1 1
0 0 0 0 0 0 0 0 0 0 0 0 0 0 0 1 1 1 1 1 1 1 2 1 1 1 1 1 1 1 1 0 0 0 0 1 1 2 2 1 0 0 0 0 0 0 0 0 1
Wind_Speed
8 10 7 2 2 1 5 6 7 6 6 8 8 7 10 11 8 7 2 3 5 6 9 8 8 8 7 7 7 7 8 8 8 8 8 7 7 7 7 7 7 7 7 7 7 8 8 8 8
9 6 4 3 2 1 6 6 7 7 6 5 7 8 10 11 10 8 4 3 4 7 9 8 8 7 7 7 7 8 8 8 8 8 8 8 7 7 7 7 7 7 7 7 7 8 8 8 8
12 8 3 2 2 4 5 6 6 6 5 5 6 8 8 7 8 6 4 3 5 7 10 9 8 7 7 7 7 8 8 8 8 8 8 8 7 8 7 7 7 6 7 7 8 8 9 9 9
6 3 2 1 6 7 6 5 4 5 4 4 5 8 8 8 6 6 5 4 6 7 9 9 8 8 7 7 8 7 8 7 7 8 8 9 9 8 8 7 8 7 7 7 8 9 9 9 8
3 2 1 3 6 6 6 5 4 5 5 6 8 9 8 8 7 8 5 5 6 6 8 9 9 8 8 7 7 7 7 7 8 8 8 9 9 9 8 8 8 8 8 8 8 9 8 8 8
3 2 0 4 6 5 5 4 4 6 6 6 7 8 7 7 7 6 5 4 5 6 7 10 9 8 8 7 7 7 7 7 7 8 8 8 8 9 9 9 9 9 9 8 8 8 8 8 7
2 2 2 5 4 4 5 4 5 5 5 6 5 7 7 7 6 5 5 4 4 4 5 7 8 7 8 7 7 6 6 6 6 6 6 7 7 8 8 9 9 9 9 8 8 7 7 7 6
2 2 1 3 4 4 4 4 6 5 5 6 5 5 6 7 6 5 4 4 3 4 4 4 5 6 6 6 6 6 5 4 4 5 5 5 6 6 8 8 8 8 7 7 7 6 6 6 5
2 1 2 3 3 4 4 4 5 4 5 6 7 9 8 8 7 6 4 4 3 4 3 3 4 3 4 5 6 5 5 3 3 3 4 3 2 3 5 7 8 7 7 6 5 4 4 4 3
1 2 3 3 3 4 4 3 3 3 4 5 6 7 8 7 6 5 4 4 4 4 3 3 3 3 4 4 4 2 2 2 1 2 3 2 2 3 6 7 8 7 6 4 3 2 2 1 1
2 2 4 4 4 3 4 3 3 2 3 4 5 6 7 6 5 5 4 4 4 4 4 4 3 4 4 3 3 1 1 1 1 2 3 3 3 2 3 2 3 3 3 1 1 0 0 2 2
2 3 3 4 4 2 2 3 3 3 3 4 5 6 6 6 5 5 4 5 4 4 4 3 2 4 4 4 2 2 1 1 2 2 3 2 2 1 2 1 2 2 1 1 1 1 2 3 4
3 3 2 2 2 1 1 1 2 2 3 4 5 5 5 5 5 5 5 5 5 4 4 3 3 4 4 4 2 3 3 2 2 2 2 3 2 2 2 2 2 2 2 2 2 2 3 4 4
2 2 2 2 3 2 2 2 3 2 4 4 5 4 4 4 4 5 5 4 5 4 4 4 3 4 4 4 3 3 2 2 2 2 2 3 2 2 2 2 2 2 2 2 2 3 3 3 3
3 3 2 2 3 3 2 2 3 4 6 5 5 5 4 4 4 4 4 4 4 5 5 4 3 4 4 4 3 3 2 2 2 2 2 3 2 2 2 2 2 2 2 3 3 3 3 3 3
5 3 2 3 4 4 4 2 1 4 6 5 5 5 5 4 4 4 4 4 4 5 5 5 3 4 4 3 3 2 2 2 2 2 2 3 3 4 3 3 2 3 3 2 2 2 3 3 3
4 4 4 3 4 3 3 2 2 5 6 6 6 6 6 6 5 4 4 4 5 5 5 6 4 4 4 3 3 3 3 2 2 2 3 3 3 4 3 2 2 3 2 2 2 3 2 2 2
4 4 3 2 3 3 3 3 4 5 6 6 6 6 7 7 6 5 5 4 4 5 5 6 4 3 4 3 2 2 3 2 2 2 2 3 3 3 3 2 3 3 2 2 3 2 2 1 1
7 7 4 2 2 3 4 4 4 5 5 5 6 6 7 7 7 6 6 5 4 4 4 5 5 4 4 2 2 2 2 2 2 2 3 3 3 3 3 3 3 3 2 2 3 2 2 1 1
8 7 5 3 3 4 4 5 4 5 6 5 4 5 6 6 8 7 7 5 4 4 4 5 4 4 4 2 2 2 2 2 2 2 2 2 2 2 3 3 2 2 2 2 2 2 1 1 1
8 6 6 6 5 7 6 5 4 5 5 5 4 3 5 5 7 8 7 6 5 4 3 4 4 5 4 3 2 2 2 1 2 2 1 1 2 2 2 2 2 2 2 2 2 1 2 0 1
6 4 6 7 6 5 5 3 4 5 6 7 5 4 4 5 6 7 7 7 6 5 4 5 5 5 4 4 3 2 2 2 2 2 2 2 2 2 1 2 2 2 2 2 1 1 1 1 0
5 6 8 9 8 8 8 5 3 5 6 7 7 5 4 5 6 7 7 6 6 5 4 3 4 4 4 3 3 2 2 1 2 2 2 2 2 2 2 1 1 2 2 2 1 1 1 1 0
6 8 10 8 6 8 7 5 2 3 5 6 6 6 5 5 5 5 6 6 5 5 4 3 4 4 4 3 3 3 3 2 2 2 2 1 1 1 2 2 2 2 2 2 2 1 1 1 0
6 6 4 4 5 5 4 3 2 4 5 5 6 5 6 6 6 6 6 6 5 5 4 4 4 4 4 3 3 3 3 2 3 2 2 2 2 2 2 2 2 2 2 2 2 2 1 1 1
6 7 5 4 4 3 3 2 4 8 6 5 5 5 5 5 6 6 6 6 6 6 5 5 5 4 4 3 3 2 3 2 2 2 2 2 2 2 2 2 2 2 2 2 2 1 1 1 2
6 5 6 7 9 7 3 2 5 6 6 5 5 6 4 4 5 6 6 6 6 6 6 5 5 5 4 4 3 3 3 2 2 2 1 1 1 2 2 2 1 2 2 2 2 1 1 1 1
9 7 5 4 4 5 3 2 3 6 5 5 4 4 4 4 4 5 5 5 5 6 6 5 5 5 5 4 3 2 2 2 2 1 1 2 2 2 3 3 2 1 2 2 2 1 1 1 1
7 7 6 5 4 4 3 1 2 5 5 5 4 4 4 4 4 4 5 4 5 5 5 5 4 4 5 4 3 3 2 2 2 2 1 1 2 2 3 3 3 2 2 2 2 2 2 2 2
6 7 7 5 5 5 4 1 1 4 4 4 3 3 4 3 3 4 4 4 4 5 5 5 5 4 4 4 3 3 3 2 1 2 2 2 2 2 2 3 3 2 2 2 1 1 2 2 2
Wind_Direction
254 243 242 254 259 200 65 58 61 48 50 43 41 51 60 50 48 79 111 63 76 90 98 84 64 59 55 54 56 56 54 51 49 50 49 56 57 56 57 60 67 72 72 76 78 78 78 77 73
271 260 262 243 258 77 75 67 60 52 55 52 50 53 67 60 71 93 103 76 77 87 88 80 72 64 59 58 59 61 58 55 52 52 53 57 58 58 64 68 69 73 74 77 79 79 76 74 71
264 263 265 261 25 55 72 73 74 67 48 55 66 57 53 62 65 90 109 110 87 81 90 89 82 74 67 64 61 62 59 57 56 58 57 55 61 64 70 76 74 78 76 79 81 78 76 73 69
264 261 246 34 63 63 72 79 79 78 65 62 75 77 68 60 74 96 103 98 90 89 97 104 95 85 76 70 64 61 60 59 61 64 64 61 67 71 76 78 77 81 80 83 82 79 78 74 69
250 257 237 81 71 70 69 65 62 76 69 64 76 89 87 77 84 92 87 78 89 96 105 112 108 97 86 78 71 67 64 62 63 67 68 66 69 71 77 78 77 80 81 84 83 80 79 75 67
275 260 276 80 77 67 70 70 61 66 71 75 90 97 95 101 94 92 92 77 78 93 105 118 123 114 102 91 83 74 70 67 66 70 73 73 75 75 77 77 78 81 79 81 83 80 78 74 67
286 308 65 89 95 90 75 57 54 59 60 56 78 97 106 105 105 107 101 92 82 86 101 120 133 130 121 111 102 95 87 84 84 85 85 85 84 84 83 83 84 84 82 82 83 82 81 79 69
297 299 81 78 85 85 80 71 66 56 57 49 46 80 111 119 122 119 118 111 102 95 90 105 127 135 135 133 126 119 114 113 116 112 107 102 93 93 94 93 91 91 88 86 86 88 87 85 76
263 278 58 71 87 95 98 92 88 91 80 72 70 75 99 121 128 133 127 115 101 88 89 100 102 111 123 130 127 138 139 143 148 151 147 139 114 107 101 101 105 102 101 99 100 104 101 97 88
195 68 58 60 76 102 98 86 101 117 102 100 99 101 116 127 130 126 123 120 113 102 91 89 103 107 95 86 115 137 130 136 164 108 121 125 98 93 100 110 113 115 115 115 124 143 144 136 114
83 83 72 65 65 73 93 91 82 87 79 94 120 126 130 135 139 135 126 109 101 92 78 72 74 84 86 87 87 72 75 86 68 66 79 83 87 104 110 122 126 134 139 120 138 201 87 90 82
102 77 70 82 73 52 84 92 75 69 64 79 100 123 137 143 137 134 128 115 105 93 91 76 69 83 78 78 77 80 72 62 52 50 77 79 74 75 92 104 117 109 90 80 65 56 42 52 58
96 94 95 111 136 173 102 96 100 93 102 109 118 129 141 146 144 143 135 131 133 127 121 98 69 79 89 85 66 69 64 55 54 45 55 67 74 80 81 67 74 71 70 74 63 64 52 54 49
114 141 157 167 167 193 188 175 169 152 141 139 139 140 142 138 146 142 142 149 143 137 120 102 86 79 82 90 85 81 81 73 55 61 68 71 68 69 73 73 74 68 57 57 72 78 68 67 68
212 207 195 209 204 185 218 254 199 175 161 159 153 146 139 142 152 148 148 148 138 133 122 113 99 89 81 78 80 81 81 79 58 52 57 66 55 63 75 72 71 69 62 54 55 67 70 72 69
228 222 224 210 218 198 236 261 168 172 168 167 167 156 153 156 165 160 158 153 139 134 128 119 108 103 93 86 85 80 77 66 57 50 42 54 59 59 65 65 71 73 63 60 63 59 64 62 63
245 242 231 207 212 223 233 256 206 181 179 180 177 170 166 163 171 166 159 150 140 135 130 127 120 112 105 99 98 85 86 72 65 57 44 37 56 70 73 58 66 77 71 61 71 69 68 68 72
264 269 262 234 209 231 244 246 221 193 190 189 181 176 167 163 168 158 145 139 131 126 125 127 123 118 108 95 103 95 82 70 72 68 63 43 50 68 82 76 65 65 71 59 66 71 66 65 72
284 288 298 292 245 254 253 246 230 201 184 193 188 179 170 163 159 150 148 145 138 131 131 127 131 121 103 94 95 98 101 96 76 75 72 56 55 66 80 75 72 64 74 80 78 72 70 55 67
277 287 295 291 269 274 265 256 237 201 189 194 194 178 169 160 154 147 153 147 145 138 136 131 130 120 117 121 129 133 118 114 114 86 74 70 61 60 94 98 93 86 84 81 88 87 64 28 44
268 278 294 301 292 269 261 250 219 191 183 174 176 173 165 161 155 156 157 147 143 136 137 127 126 122 128 128 103 104 112 128 110 105 92 76 83 68 74 100 103 105 107 107 106 100 96 73 332
279 296 297 291 284 274 252 262 218 185 175 165 164 169 169 158 156 152 154 153 152 147 149 140 131 133 129 129 129 141 140 135 140 141 150 140 111 104 94 107 113 117 116 124 147 128 130 119 326
286 299 288 281 281 280 264 257 204 174 170 163 161 163 162 153 154 152 156 154 149 144 139 133 130 127 122 130 146 160 133 136 141 134 137 135 126 136 128 122 136 136 131 139 127 108 129 142 172
286 284 273 261 262 260 253 245 181 169 154 150 153 160 157 148 142 141 138 134 132 132 135 136 132 123 128 150 163 167 157 147 136 138 148 150 149 162 154 162 171 156 154 153 151 163 170 179 168
262 275 283 249 228 248 250 231 141 117 109 120 134 142 147 149 148 144 137 140 137 140 146 150 142 141 150 176 179 165 160 166 158 171 179 173 169 173 183 179 188 175 170 168 168 172 178 192 199
259 263 273 290 290 291 256 223 116 109 107 107 123 129 134 138 141 147 151 153 151 153 159 163 161 161 167 189 188 163 153 172 166 189 190 181 174 172 171 191 186 171 175 178 177 177 199 199 203
271 263 277 290 292 285 254 157 124 120 131 130 128 127 132 138 138 143 149 155 155 160 167 173 170 172 178 196 191 178 172 177 168 194 195 174 169 171 168 181 194 185 177 188 174 181 194 194 218
261 284 287 274 289 290 275 236 159 156 145 135 133 139 142 144 143 146 149 161 164 167 172 179 185 178 177 190 194 176 169 177 175 186 199 192 181 169 168 170 160 185 189 187 171 172 191 161 190
236 252 267 276 273 288 303 1 88 143 138 141 146 142 141 147 150 145 149 159 161 161 171 180 185 178 174 184 191 167 176 195 183 181 206 208 190 178 172 175 178 184 185 182 162 177 186 200 216
262 259 258 265 276 281 288 297 20 99 119 133 131 128 130 130 132 133 143 154 165 172 180 179 179 180 176 179 182 169 174 184 194 186 195 213 208 188 188 182 181 181 182 167 164 216 222 217 218